Location: Albany
(35.0000°S, 118.0000°E)
Time: 01:13:06
(UTC-04:00)

SJ-6B - Visible Passes

Search period start: 23 October 2014 00:00
Search period end: 02 November 2014 00:00
Orbit: 518 x 598 km, 97.8° (Epoch: 22 October)

Date Brightness Start Highest point End Pass type
(mag) Time Alt. Az. Time Alt. Az. Time Alt. Az.
23 Oct 6.0 07:21:12 10° SSW 07:24:21 21° WSW 07:27:30 10° WNW visible
23 Oct 6.9 16:31:37 10° ESE 16:32:27 11° ESE 16:33:18 10° SE visible
24 Oct 6.0 07:19:20 10° SSW 07:22:35 22° WSW 07:25:48 10° WNW visible
24 Oct 7.0 16:30:26 10° ESE 16:30:40 10° ESE 16:30:55 10° ESE visible
25 Oct 5.9 07:17:28 10° SSW 07:20:48 23° WSW 07:24:06 10° WNW visible
26 Oct 5.8 07:15:36 10° SSW 07:19:00 24° WSW 07:22:23 10° WNW visible
27 Oct 5.7 07:13:43 10° SSW 07:17:12 25° WSW 07:20:39 10° NW visible
28 Oct 5.6 07:11:50 10° SSW 07:15:23 26° WSW 07:18:54 10° NW visible
29 Oct 5.5 07:09:56 10° SSW 07:13:34 27° WSW 07:17:08 10° NW visible
30 Oct 5.4 07:08:03 10° SSW 07:11:44 29° WSW 07:15:21 10° NW visible
31 Oct 5.3 07:06:09 10° S 07:09:53 30° WSW 07:13:34 10° NW visible
01 Nov 5.2 07:04:14 10° S 07:08:02 32° WSW 07:11:46 10° NW visible
